"read_dt","SO2 (ppb)","flags","PMT voltage (V)","lamp voltage (V)","lamp intensity (Hz)","internal temp (C)","react chamber temp (C)","sample flow (l/min)","pres (mmHg)","SO2 bkg (ppb)","SO2 coefficient"
2017-02-16 00:00:00,3065E-3,5C000000,-0724,0837,11934,026.5,045.4,0.437,737.3,01.18,0.508
2017-02-16 00:01:00,3151E-3,5C000000,-0724,0837,12066,026.5,045.4,0.437,737.5,01.18,0.508
2017-02-16 00:02:00,3036E-3,5C000000,-0724,0838,11985,026.5,045.4,0.437,737.4,01.18,0.508
2017-02-16 00:03:00,2980E-3,5C000000,-0724,0837,12105,026.5,045.4,0.437,737.5,01.18,0.508
2017-02-16 00:04:00,3060E-3,5C000000,-0724,0836,12036,026.5,045.4,0.437,737.2,01.18,0.508
2017-02-16 00:05:00,3099E-3,5C000000,-0724,0837,12025,026.5,045.4,0.437,737.4,01.18,0.508
2017-02-16 00:06:00,2945E-3,5C000000,-0724,0837,11976,026.5,045.4,0.437,737.0,01.18,0.508
2017-02-16 00:07:00,3041E-3,5C000000,-0724,0837,12234,026.5,045.4,0.437,737.3,01.18,0.508
2017-02-16 00:08:00,3065E-3,5C000000,-0724,0837,12154,026.5,045.4,0.437,737.4,01.18,0.508
2017-02-16 00:09:00,3050E-3,5C000000,-0724,0837,12000,026.5,045.4,0.437,737.5,01.18,0.508
2017-02-16 00:10:00,3102E-3,5C000000,-0724,0838,11929,026.5,045.4,0.437,737.4,01.18,0.508
2017-02-16 00:11:00,3131E-3,5C000000,-0724,0837,12104,026.5,045.4,0.437,737.2,01.18,0.508
2017-02-16 00:12:00,3144E-3,5C000000,-0724,0837,12014,026.5,045.4,0.437,737.4,01.18,0.508
2017-02-16 00:13:00,2976E-3,5C000000,-0724,0837,12099,026.5,045.4,0.437,737.6,01.18,0.508
2017-02-16 00:14:00,3121E-3,5C000000,-0724,0837,12102,026.5,045.4,0.437,737.2,01.18,0.508
2017-02-16 00:15:00,3122E-3,5C000000,-0724,0837,11972,026.5,045.4,0.437,737.4,01.18,0.508
2017-02-16 00:16:00,2940E-3,5C000000,-0724,0837,12135,026.5,045.4,0.437,737.7,01.18,0.508
2017-02-16 00:17:00,3040E-3,5C000000,-0724,0837,12094,026.5,045.4,0.437,737.6,01.18,0.508
2017-02-16 00:18:00,3194E-3,5C000000,-0724,0837,12068,026.4,045.4,0.437,737.6,01.18,0.508
2017-02-16 00:19:00,3060E-3,5C000000,-0724,0837,12099,026.4,045.4,0.437,737.5,01.18,0.508
2017-02-16 00:20:00,3026E-3,5C000000,-0724,0837,12115,026.4,045.4,0.437,737.6,01.18,0.508
2017-02-16 00:21:00,2822E-3,5C000000,-0724,0837,12031,026.4,045.4,0.437,737.6,01.18,0.508
2017-02-16 00:22:00,3124E-3,5C000000,-0724,0837,12083,026.4,045.4,0.437,737.5,01.18,0.508
2017-02-16 00:23:00,2978E-3,5C000000,-0724,0838,12026,026.4,045.4,0.437,737.5,01.18,0.508
2017-02-16 00:24:00,3091E-3,5C000000,-0724,0837,11939,026.4,045.4,0.437,737.7,01.18,0.508
2017-02-16 00:25:00,3072E-3,5C000000,-0724,0837,12086,026.4,045.4,0.437,737.8,01.18,0.508
2017-02-16 00:26:00,3005E-3,5C000000,-0724,0837,12051,026.4,045.4,0.437,737.7,01.18,0.508
2017-02-16 00:27:00,3222E-3,5C000000,-0724,0837,12049,026.4,045.4,0.437,737.8,01.18,0.508
2017-02-16 00:28:00,3161E-3,5C000000,-0724,0836,12105,026.4,045.4,0.437,737.8,01.18,0.508
2017-02-16 00:29:00,3211E-3,5C000000,-0724,0837,12148,026.4,045.4,0.437,737.8,01.18,0.508
2017-02-16 00:30:00,3123E-3,5C000000,-0724,0837,12135,026.4,045.4,0.437,737.7,01.18,0.508
2017-02-16 00:31:00,3089E-3,5C000000,-0724,0837,12108,026.4,045.4,0.437,737.8,01.18,0.508
2017-02-16 00:32:00,3085E-3,5C000000,-0724,0837,12084,026.4,045.4,0.437,737.8,01.18,0.508
2017-02-16 00:33:00,3201E-3,5C000000,-0724,0836,12093,026.4,045.4,0.437,737.8,01.18,0.508
2017-02-16 00:34:00,3072E-3,5C000000,-0724,0837,11965,026.4,045.4,0.437,737.7,01.18,0.508
2017-02-16 00:35:00,3248E-3,5C000000,-0724,0837,11940,026.4,045.4,0.437,737.8,01.18,0.508
2017-02-16 00:36:00,3235E-3,5C000000,-0724,0837,12086,026.4,045.4,0.438,737.8,01.18,0.508
2017-02-16 00:37:00,3180E-3,5C000000,-0724,0837,11997,026.4,045.4,0.438,738.0,01.18,0.508
2017-02-16 00:38:00,3150E-3,5C000000,-0724,0837,12057,026.4,045.4,0.438,737.9,01.18,0.508
2017-02-16 00:39:00,3185E-3,5C000000,-0724,0837,12106,026.4,045.4,0.438,738.0,01.18,0.508
2017-02-16 00:40:00,3201E-3,5C000000,-0724,0837,12068,026.4,045.4,0.438,738.1,01.18,0.508
2017-02-16 00:41:00,3043E-3,5C000000,-0724,0837,12039,026.4,045.4,0.437,738.1,01.18,0.508
2017-02-16 00:42:00,3035E-3,5C000000,-0724,0837,12109,026.3,045.4,0.437,738.2,01.18,0.508
2017-02-16 00:43:00,3216E-3,5C000000,-0724,0837,12148,026.3,045.4,0.437,738.1,01.18,0.508
2017-02-16 00:44:00,3202E-3,5C000000,-0724,0837,12169,026.4,045.4,0.438,738.1,01.18,0.508
2017-02-16 00:45:00,3256E-3,5C000000,-0724,0837,12126,026.3,045.4,0.438,738.2,01.18,0.508
2017-02-16 00:46:00,3078E-3,5C000000,-0724,0837,12121,026.3,045.4,0.438,738.1,01.18,0.508
2017-02-16 00:47:00,3092E-3,5C000000,-0724,0837,12147,026.3,045.4,0.438,738.3,01.18,0.508
2017-02-16 00:48:00,3013E-3,5C000000,-0724,0837,12011,026.3,045.4,0.438,738.3,01.18,0.508
2017-02-16 00:49:00,3101E-3,5C000000,-0724,0837,12117,026.4,045.4,0.438,738.2,01.18,0.508
2017-02-16 00:50:00,3077E-3,5C000000,-0724,0838,11984,026.3,045.4,0.438,738.2,01.18,0.508
2017-02-16 00:51:00,3085E-3,5C000000,-0724,0837,12152,026.4,045.4,0.438,738.2,01.18,0.508
2017-02-16 00:52:00,3182E-3,5C000000,-0724,0838,12167,026.4,045.4,0.438,738.3,01.18,0.508
2017-02-16 00:53:00,3025E-3,5C000000,-0724,0837,12107,026.4,045.4,0.437,738.2,01.18,0.508
2017-02-16 00:54:00,3246E-3,5C000000,-0724,0837,12127,026.4,045.4,0.437,738.0,01.18,0.508
2017-02-16 00:55:00,3051E-3,5C000000,-0724,0836,12014,026.4,045.4,0.437,738.2,01.18,0.508
2017-02-16 00:56:00,3179E-3,5C000000,-0724,0837,11962,026.4,045.4,0.437,738.1,01.18,0.508
2017-02-16 00:57:00,3102E-3,5C000000,-0724,0836,12080,026.4,045.4,0.437,738.2,01.18,0.508
2017-02-16 00:58:00,3139E-3,5C000000,-0724,0836,12043,026.4,045.4,0.437,738.1,01.18,0.508
2017-02-16 00:59:00,3092E-3,5C000000,-0724,0837,12022,026.4,045.4,0.437,738.2,01.18,0.508
2017-02-16 01:00:00,3072E-3,5C000000,-0724,0837,12083,026.4,045.4,0.437,737.9,01.18,0.508
2017-02-16 01:01:00,3270E-3,5C000000,-0724,0837,12055,026.4,045.4,0.437,738.0,01.18,0.508
2017-02-16 01:02:00,3180E-3,5C000000,-0724,0837,12032,026.4,045.4,0.438,738.0,01.18,0.508
2017-02-16 01:03:00,2954E-3,5C000000,-0724,0837,12106,026.4,045.4,0.438,738.1,01.18,0.508
2017-02-16 01:04:00,3043E-3,5C000000,-0724,0837,11988,026.4,045.4,0.438,738.0,01.18,0.508
2017-02-16 01:05:00,3058E-3,5C000000,-0724,0837,11953,026.4,045.4,0.438,738.0,01.18,0.508
2017-02-16 01:06:00,3023E-3,5C000000,-0724,0837,12168,026.4,045.4,0.438,737.9,01.18,0.508
2017-02-16 01:07:00,3121E-3,5C000000,-0724,0837,12075,026.4,045.4,0.437,737.9,01.18,0.508
2017-02-16 01:08:00,3213E-3,5C000000,-0724,0836,12094,026.4,045.4,0.437,738.1,01.18,0.508
2017-02-16 01:09:00,3167E-3,5C000000,-0724,0837,12172,026.4,045.4,0.437,738.0,01.18,0.508
2017-02-16 01:10:00,3155E-3,5C000000,-0724,0837,11935,026.4,045.4,0.437,738.0,01.18,0.508
2017-02-16 01:11:00,3231E-3,5C000000,-0724,0837,12038,026.4,045.4,0.437,737.9,01.18,0.508
2017-02-16 01:12:00,3208E-3,5C000000,-0724,0837,12036,026.4,045.4,0.437,738.0,01.18,0.508
2017-02-16 01:13:00,3198E-3,5C000000,-0724,0837,12106,026.4,045.4,0.437,738.0,01.18,0.508
2017-02-16 01:14:00,3215E-3,5C000000,-0724,0837,12036,026.4,045.4,0.437,738.0,01.18,0.508
2017-02-16 01:15:00,3212E-3,5C000000,-0724,0838,12031,026.4,045.4,0.437,738.0,01.18,0.508
2017-02-16 01:16:00,3117E-3,5C000000,-0724,0837,12126,026.4,045.4,0.437,737.9,01.18,0.508
2017-02-16 01:17:00,3342E-3,5C000000,-0724,0837,12103,026.5,045.4,0.437,737.9,01.18,0.508
2017-02-16 01:18:00,3176E-3,5C000000,-0724,0837,12034,026.4,045.4,0.437,737.9,01.18,0.508
2017-02-16 01:19:00,3169E-3,5C000000,-0724,0837,12176,026.5,045.4,0.437,737.9,01.18,0.508
2017-02-16 01:20:00,3186E-3,5C000000,-0724,0837,12101,026.5,045.4,0.437,737.9,01.18,0.508
2017-02-16 01:21:00,3184E-3,5C000000,-0724,0837,11925,026.5,045.4,0.437,738.0,01.18,0.508
2017-02-16 01:22:00,3198E-3,5C000000,-0724,0838,12194,026.5,045.4,0.438,737.8,01.18,0.508
2017-02-16 01:23:00,3310E-3,5C000000,-0724,0837,12163,026.5,045.4,0.438,738.0,01.18,0.508
2017-02-16 01:24:00,3078E-3,5C000000,-0724,0838,12115,026.5,045.4,0.438,737.9,01.18,0.508
2017-02-16 01:25:00,3178E-3,5C000000,-0724,0837,11909,026.5,045.4,0.438,738.0,01.18,0.508
2017-02-16 01:26:00,3071E-3,5C000000,-0724,0837,11983,026.5,045.4,0.437,738.0,01.18,0.508
2017-02-16 01:27:00,3220E-3,5C000000,-0724,0837,12223,026.5,045.4,0.437,737.9,01.18,0.508
2017-02-16 01:28:00,3228E-3,5C000000,-0724,0839,12131,026.5,045.4,0.437,737.9,01.18,0.508
2017-02-16 01:29:00,3149E-3,5C000000,-0724,0838,11982,026.5,045.4,0.437,738.0,01.18,0.508
2017-02-16 01:30:00,3062E-3,5C000000,-0724,0838,12103,026.5,045.4,0.437,738.0,01.18,0.508
2017-02-16 01:31:00,3213E-3,5C000000,-0724,0837,12116,026.5,045.4,0.437,738.1,01.18,0.508
2017-02-16 01:32:00,3131E-3,5C000000,-0724,0837,12149,026.5,045.4,0.437,738.0,01.18,0.508
2017-02-16 01:33:00,3206E-3,5C000000,-0724,0838,12107,026.5,045.4,0.437,737.9,01.18,0.508
2017-02-16 01:34:00,3132E-3,5C000000,-0724,0837,12033,026.5,045.4,0.437,738.1,01.18,0.508
2017-02-16 01:35:00,3328E-3,5C000000,-0724,0838,12049,026.5,045.4,0.437,738.1,01.18,0.508
2017-02-16 01:36:00,3042E-3,5C000000,-0724,0837,12141,026.5,045.4,0.437,738.0,01.18,0.508
2017-02-16 01:37:00,3260E-3,5C000000,-0724,0837,12028,026.5,045.4,0.437,737.9,01.18,0.508
2017-02-16 01:38:00,3147E-3,5C000000,-0724,0837,12068,026.5,045.4,0.437,738.1,01.18,0.508
2017-02-16 01:39:00,3146E-3,5C000000,-0724,0837,12085,026.5,045.4,0.437,738.1,01.18,0.508
2017-02-16 01:40:00,3298E-3,5C000000,-0724,0837,12010,026.5,045.4,0.437,738.1,01.18,0.508
2017-02-16 01:41:00,3247E-3,5C000000,-0724,0837,12140,026.5,045.4,0.437,738.1,01.18,0.508
2017-02-16 01:42:00,3210E-3,5C000000,-0724,0837,12058,026.5,045.4,0.437,738.0,01.18,0.508
2017-02-16 01:43:00,3157E-3,5C000000,-0724,0837,12012,026.5,045.4,0.437,738.1,01.18,0.508
2017-02-16 01:44:00,3066E-3,5C000000,-0724,0837,12216,026.5,045.4,0.437,737.9,01.18,0.508
2017-02-16 01:45:00,3406E-3,5C000000,-0724,0837,12097,026.5,045.4,0.437,738.0,01.18,0.508
2017-02-16 01:46:00,3185E-3,5C000000,-0724,0837,12115,026.5,045.4,0.437,737.9,01.18,0.508
2017-02-16 01:47:00,3198E-3,5C000000,-0724,0837,11868,026.5,045.4,0.437,737.7,01.18,0.508
2017-02-16 01:48:00,3226E-3,5C000000,-0724,0837,12135,026.5,045.4,0.437,737.9,01.18,0.508
2017-02-16 01:49:00,3386E-3,5C000000,-0724,0837,12059,026.5,045.4,0.437,737.9,01.18,0.508
2017-02-16 01:50:00,3318E-3,5C000000,-0724,0837,12005,026.5,045.4,0.437,737.8,01.18,0.508
2017-02-16 01:51:00,3266E-3,5C000000,-0724,0837,12106,026.5,045.4,0.437,737.8,01.18,0.508
2017-02-16 01:52:00,3176E-3,5C000000,-0724,0836,12071,026.5,045.4,0.438,737.9,01.18,0.508
2017-02-16 01:53:00,3287E-3,5C000000,-0724,0837,11983,026.5,045.4,0.437,737.9,01.18,0.508
2017-02-16 01:54:00,3242E-3,5C000000,-0724,0837,12119,026.6,045.4,0.437,737.8,01.18,0.508
2017-02-16 01:55:00,3337E-3,5C000000,-0724,0837,12049,026.6,045.4,0.437,738.0,01.18,0.508
2017-02-16 01:56:00,3342E-3,5C000000,-0724,0837,11932,026.6,045.4,0.437,737.9,01.18,0.508
2017-02-16 01:57:00,3135E-3,5C000000,-0724,0837,12035,026.6,045.4,0.437,737.9,01.18,0.508
2017-02-16 01:58:00,3254E-3,5C000000,-0724,0838,12013,026.6,045.4,0.437,738.0,01.18,0.508
2017-02-16 01:59:00,3165E-3,5C000000,-0724,0837,12116,026.6,045.4,0.437,737.9,01.18,0.508
2017-02-16 02:00:00,3264E-3,5C000000,-0724,0837,12094,026.6,045.4,0.437,737.9,01.18,0.508
2017-02-16 02:01:00,3287E-3,5C000000,-0724,0837,12036,026.6,045.4,0.437,737.9,01.18,0.508
2017-02-16 02:02:00,3163E-3,5C000000,-0724,0837,12010,026.6,045.4,0.437,738.0,01.18,0.508
2017-02-16 02:03:00,3243E-3,5C000000,-0724,0837,11907,026.6,045.4,0.437,738.0,01.18,0.508
2017-02-16 02:04:00,3240E-3,5C000000,-0724,0837,12101,026.6,045.4,0.437,738.0,01.18,0.508
2017-02-16 02:05:00,3443E-3,5C000000,-0724,0837,11999,026.6,045.4,0.437,738.0,01.18,0.508
2017-02-16 02:06:00,3245E-3,5C000000,-0724,0838,12074,026.6,045.4,0.437,738.0,01.18,0.508
2017-02-16 02:07:00,3273E-3,5C000000,-0724,0836,12101,026.6,045.4,0.437,737.9,01.18,0.508
2017-02-16 02:08:00,3120E-3,5C000000,-0724,0836,12059,026.6,045.4,0.437,738.0,01.18,0.508
2017-02-16 02:09:00,3246E-3,5C000000,-0724,0837,12046,026.6,045.4,0.437,737.9,01.18,0.508
2017-02-16 02:10:00,3326E-3,5C000000,-0724,0837,12039,026.6,045.4,0.437,737.9,01.18,0.508
2017-02-16 02:11:00,3080E-3,5C000000,-0724,0837,12028,026.6,045.4,0.437,737.9,01.18,0.508
2017-02-16 02:12:00,3221E-3,5C000000,-0724,0836,12133,026.6,045.4,0.437,737.8,01.18,0.508
2017-02-16 02:13:00,3294E-3,5C000000,-0724,0837,11991,026.6,045.4,0.437,737.8,01.18,0.508
2017-02-16 02:14:00,3168E-3,5C000000,-0724,0837,12073,026.6,045.4,0.436,737.8,01.18,0.508
2017-02-16 02:15:00,3261E-3,5C000000,-0724,0837,11955,026.6,045.4,0.437,737.8,01.18,0.508
2017-02-16 02:16:00,3198E-3,5C000000,-0724,0837,12165,026.6,045.4,0.437,737.8,01.18,0.508
2017-02-16 02:17:00,3086E-3,5C000000,-0724,0837,11977,026.6,045.4,0.437,737.8,01.18,0.508
2017-02-16 02:18:00,3204E-3,5C000000,-0724,0837,12133,026.6,045.4,0.437,737.8,01.18,0.508
2017-02-16 02:19:00,3316E-3,5C000000,-0724,0837,12014,026.6,045.4,0.437,737.8,01.18,0.508
2017-02-16 02:20:00,3185E-3,5C000000,-0724,0837,12100,026.6,045.4,0.437,737.7,01.18,0.508
2017-02-16 02:21:00,3314E-3,5C000000,-0724,0837,11998,026.6,045.4,0.437,737.7,01.18,0.508
2017-02-16 02:22:00,3158E-3,5C000000,-0724,0838,12113,026.6,045.4,0.437,737.8,01.18,0.508
2017-02-16 02:23:00,3314E-3,5C000000,-0724,0837,12128,026.6,045.4,0.437,737.8,01.18,0.508
2017-02-16 02:24:00,3248E-3,5C000000,-0724,0837,12139,026.6,045.4,0.437,737.8,01.18,0.508
2017-02-16 02:25:00,3420E-3,5C000000,-0724,0837,11987,026.6,045.4,0.437,737.8,01.18,0.508
2017-02-16 02:26:00,3146E-3,5C000000,-0724,0836,11978,026.6,045.4,0.437,737.8,01.18,0.508
2017-02-16 02:27:00,3414E-3,5C000000,-0724,0837,12063,026.6,045.4,0.437,737.9,01.18,0.508
2017-02-16 02:28:00,3164E-3,5C000000,-0724,0838,12128,026.6,045.4,0.437,737.9,01.18,0.508
2017-02-16 02:29:00,3231E-3,5C000000,-0724,0837,12022,026.5,045.4,0.437,737.9,01.18,0.508
2017-02-16 02:30:00,3292E-3,5C000000,-0724,0837,12095,026.6,045.4,0.437,737.8,01.18,0.508
2017-02-16 02:31:00,3312E-3,5C000000,-0724,0837,12070,026.6,045.4,0.437,737.9,01.18,0.508
2017-02-16 02:32:00,3412E-3,5C000000,-0724,0837,11942,026.6,045.4,0.437,737.8,01.18,0.508
2017-02-16 02:33:00,3207E-3,5C000000,-0724,0837,11940,026.6,045.4,0.437,737.8,01.18,0.508
2017-02-16 02:34:00,3229E-3,5C000000,-0724,0837,12091,026.6,045.4,0.437,737.8,01.18,0.508
2017-02-16 02:35:00,3176E-3,5C000000,-0724,0837,11963,026.6,045.4,0.437,737.7,01.18,0.508
2017-02-16 02:36:00,3314E-3,5C000000,-0724,0837,12107,026.6,045.4,0.437,737.8,01.18,0.508
2017-02-16 02:37:00,3220E-3,5C000000,-0724,0838,12012,026.6,045.4,0.437,737.7,01.18,0.508
2017-02-16 02:38:00,3343E-3,5C000000,-0724,0837,12029,026.6,045.4,0.437,737.7,01.18,0.508
2017-02-16 02:39:00,3247E-3,5C000000,-0724,0837,12017,026.6,045.4,0.437,737.8,01.18,0.508
2017-02-16 02:40:00,3348E-3,5C000000,-0724,0837,12053,026.6,045.4,0.437,737.7,01.18,0.508
2017-02-16 02:41:00,3239E-3,5C000000,-0724,0837,12124,026.5,045.4,0.437,737.8,01.18,0.508
2017-02-16 02:42:00,3239E-3,5C000000,-0724,0837,11992,026.5,045.4,0.437,737.8,01.18,0.508
2017-02-16 02:43:00,3311E-3,5C000000,-0724,0837,12200,026.5,045.4,0.437,737.8,01.18,0.508
2017-02-16 02:44:00,3210E-3,5C000000,-0724,0837,12011,026.5,045.4,0.437,737.8,01.18,0.508
2017-02-16 02:45:00,3270E-3,5C000000,-0724,0837,12074,026.5,045.4,0.437,737.8,01.18,0.508
2017-02-16 02:46:00,3226E-3,5C000000,-0724,0836,11934,026.5,045.4,0.437,737.8,01.18,0.508
2017-02-16 02:47:00,3169E-3,5C000000,-0724,0837,11917,026.5,045.4,0.437,737.8,01.18,0.508
2017-02-16 02:48:00,3082E-3,5C000000,-0724,0837,11868,026.5,045.4,0.437,737.8,01.18,0.508
2017-02-16 02:49:00,3261E-3,5C000000,-0724,0837,12132,026.5,045.4,0.437,737.8,01.18,0.508
2017-02-16 02:50:00,3282E-3,5C000000,-0724,0836,12008,026.5,045.4,0.437,737.8,01.18,0.508
2017-02-16 02:51:00,3224E-3,5C000000,-0724,0837,12027,026.5,045.4,0.437,737.8,01.18,0.508
2017-02-16 02:52:00,3313E-3,5C000000,-0724,0837,12015,026.5,045.4,0.437,737.7,01.18,0.508
2017-02-16 02:53:00,3294E-3,5C000000,-0724,0837,12024,026.5,045.4,0.437,737.8,01.18,0.508
2017-02-16 02:54:00,3374E-3,5C000000,-0724,0837,12107,026.5,045.4,0.437,737.8,01.18,0.508
2017-02-16 02:55:00,3255E-3,5C000000,-0724,0838,12090,026.5,045.4,0.437,737.8,01.18,0.508
2017-02-16 02:56:00,3203E-3,5C000000,-0724,0837,12185,026.5,045.4,0.437,737.8,01.18,0.508
2017-02-16 02:57:00,3231E-3,5C000000,-0724,0838,12204,026.5,045.4,0.437,737.8,01.18,0.508
2017-02-16 02:58:00,3335E-3,5C000000,-0724,0838,12051,026.5,045.4,0.437,737.9,01.18,0.508
2017-02-16 02:59:00,3283E-3,5C000000,-0724,0837,11878,026.5,045.4,0.437,737.8,01.18,0.508
2017-02-16 03:00:00,3202E-3,5C000000,-0724,0837,12134,026.5,045.4,0.437,737.8,01.18,0.508
2017-02-16 03:01:00,3226E-3,5C000000,-0724,0837,11989,026.5,045.4,0.437,737.8,01.18,0.508
2017-02-16 03:02:00,3121E-3,5C000000,-0724,0837,12103,026.5,045.4,0.437,737.8,01.18,0.508
2017-02-16 03:03:00,3106E-3,5C000000,-0724,0837,11964,026.5,045.4,0.437,737.9,01.18,0.508
2017-02-16 03:04:00,3256E-3,5C000000,-0724,0836,12071,026.5,045.4,0.437,737.8,01.18,0.508
2017-02-16 03:05:00,3158E-3,5C000000,-0724,0837,12007,026.5,045.4,0.437,737.9,01.18,0.508
2017-02-16 03:06:00,3270E-3,5C000000,-0724,0836,12143,026.5,045.4,0.437,737.9,01.18,0.508
2017-02-16 03:07:00,3181E-3,5C000000,-0724,0837,12093,026.5,045.4,0.437,737.9,01.18,0.508
2017-02-16 03:08:00,3077E-3,5C000000,-0724,0838,11962,026.5,045.4,0.437,738.0,01.18,0.508
2017-02-16 03:09:00,3161E-3,5C000000,-0724,0837,12099,026.5,045.4,0.437,738.0,01.18,0.508
2017-02-16 03:10:00,3221E-3,5C000000,-0724,0837,12086,026.5,045.4,0.437,737.9,01.18,0.508
2017-02-16 03:11:00,3131E-3,5C000000,-0724,0837,12081,026.5,045.4,0.437,737.9,01.18,0.508
2017-02-16 03:12:00,3267E-3,5C000000,-0724,0837,12098,026.5,045.4,0.437,737.9,01.18,0.508
2017-02-16 03:13:00,3227E-3,5C000000,-0724,0837,11988,026.5,045.4,0.437,738.0,01.18,0.508
2017-02-16 03:14:00,3058E-3,5C000000,-0724,0837,12029,026.5,045.4,0.437,737.8,01.18,0.508
2017-02-16 03:15:00,3231E-3,5C000000,-0724,0836,11936,026.5,045.4,0.437,737.8,01.18,0.508
2017-02-16 03:16:00,3339E-3,5C000000,-0724,0838,12025,026.5,045.4,0.437,737.9,01.18,0.508
2017-02-16 03:17:00,3292E-3,5C000000,-0724,0837,12096,026.5,045.4,0.437,737.9,01.18,0.508
2017-02-16 03:18:00,3253E-3,5C000000,-0724,0837,12130,026.5,045.4,0.438,737.9,01.18,0.508
2017-02-16 03:19:00,3262E-3,5C000000,-0724,0836,12081,026.5,045.4,0.438,737.9,01.18,0.508
2017-02-16 03:20:00,3114E-3,5C000000,-0724,0837,12019,026.5,045.4,0.438,737.9,01.18,0.508
2017-02-16 03:21:00,3337E-3,5C000000,-0724,0837,12073,026.5,045.4,0.438,737.8,01.18,0.508
2017-02-16 03:22:00,3005E-3,5C000000,-0724,0838,12101,026.5,045.4,0.438,737.9,01.18,0.508
2017-02-16 03:23:00,3205E-3,5C000000,-0724,0836,12120,026.5,045.4,0.437,737.9,01.18,0.508
2017-02-16 03:24:00,3187E-3,5C000000,-0724,0836,11989,026.5,045.4,0.437,737.9,01.18,0.508
2017-02-16 03:25:00,3234E-3,5C000000,-0724,0837,12078,026.5,045.4,0.437,737.8,01.18,0.508
2017-02-16 03:26:00,3175E-3,5C000000,-0724,0836,11946,026.5,045.4,0.437,737.8,01.18,0.508
2017-02-16 03:27:00,3182E-3,5C000000,-0724,0837,12106,026.5,045.4,0.437,737.8,01.18,0.508
2017-02-16 03:28:00,3181E-3,5C000000,-0724,0837,12192,026.5,045.4,0.437,737.8,01.18,0.508
2017-02-16 03:29:00,3163E-3,5C000000,-0724,0837,12076,026.5,045.4,0.437,737.7,01.18,0.508
2017-02-16 03:30:00,3246E-3,5C000000,-0724,0837,12159,026.5,045.4,0.437,737.8,01.18,0.508
2017-02-16 03:31:00,3238E-3,5C000000,-0724,0837,11983,026.5,045.4,0.437,737.9,01.18,0.508
2017-02-16 03:32:00,3314E-3,5C000000,-0724,0837,12080,026.5,045.4,0.437,737.7,01.18,0.508
2017-02-16 03:33:00,3176E-3,5C000000,-0724,0838,12025,026.5,045.4,0.437,737.8,01.18,0.508
2017-02-16 03:34:00,3211E-3,5C000000,-0724,0837,12056,026.5,045.4,0.437,737.8,01.18,0.508
2017-02-16 03:35:00,3171E-3,5C000000,-0724,0837,12163,026.5,045.4,0.437,737.8,01.18,0.508
2017-02-16 03:36:00,3146E-3,5C000000,-0724,0837,12104,026.5,045.4,0.437,737.8,01.18,0.508
2017-02-16 03:37:00,3277E-3,5C000000,-0724,0837,12004,026.6,045.4,0.437,737.8,01.18,0.508
2017-02-16 03:38:00,3188E-3,5C000000,-0724,0838,12060,026.5,045.4,0.438,737.8,01.18,0.508
2017-02-16 03:39:00,3214E-3,5C000000,-0724,0838,12008,026.6,045.4,0.437,737.7,01.18,0.508
2017-02-16 03:40:00,3096E-3,5C000000,-0724,0837,11996,026.6,045.4,0.437,737.7,01.18,0.508
2017-02-16 03:41:00,3122E-3,5C000000,-0724,0836,12126,026.6,045.4,0.437,737.8,01.18,0.508
2017-02-16 03:42:00,3219E-3,5C000000,-0724,0836,12059,026.6,045.4,0.437,737.8,01.18,0.508
2017-02-16 03:43:00,3163E-3,5C000000,-0724,0837,11931,026.6,045.4,0.437,737.7,01.18,0.508
2017-02-16 03:44:00,3149E-3,5C000000,-0724,0837,11919,026.6,045.4,0.437,737.7,01.18,0.508
2017-02-16 03:45:00,3090E-3,5C000000,-0724,0837,12052,026.6,045.4,0.437,737.7,01.18,0.508
2017-02-16 03:46:00,3082E-3,5C000000,-0724,0837,12097,026.6,045.4,0.437,737.8,01.18,0.508
2017-02-16 03:47:00,3085E-3,5C000000,-0724,0836,12095,026.6,045.4,0.437,737.7,01.18,0.508
2017-02-16 03:48:00,3199E-3,5C000000,-0724,0836,12035,026.6,045.4,0.437,737.8,01.18,0.508
2017-02-16 03:49:00,3050E-3,5C000000,-0724,0837,12057,026.6,045.4,0.437,737.8,01.18,0.508
2017-02-16 03:50:00,3148E-3,5C000000,-0724,0837,12023,026.6,045.4,0.437,737.8,01.18,0.508
2017-02-16 03:51:00,3140E-3,5C000000,-0724,0837,12066,026.6,045.4,0.437,737.7,01.18,0.508
2017-02-16 03:52:00,3042E-3,5C000000,-0724,0837,11978,026.6,045.4,0.437,737.6,01.18,0.508
2017-02-16 03:53:00,3097E-3,5C000000,-0724,0837,11950,026.6,045.4,0.437,737.5,01.18,0.508
2017-02-16 03:54:00,3183E-3,5C000000,-0724,0837,12115,026.6,045.4,0.437,737.5,01.18,0.508
2017-02-16 03:55:00,3156E-3,5C000000,-0724,0836,12118,026.6,045.4,0.436,737.6,01.18,0.508
2017-02-16 03:56:00,3122E-3,5C000000,-0724,0837,12042,026.6,045.4,0.437,737.5,01.18,0.508
2017-02-16 03:57:00,3375E-3,5C000000,-0724,0837,12065,026.6,045.4,0.437,737.6,01.18,0.508
2017-02-16 03:58:00,3245E-3,5C000000,-0724,0837,12099,026.6,045.4,0.437,737.6,01.18,0.508
2017-02-16 03:59:00,3281E-3,5C000000,-0724,0837,12007,026.6,045.4,0.437,737.7,01.18,0.508
2017-02-16 04:00:00,3212E-3,5C000000,-0724,0837,11919,026.6,045.4,0.437,737.7,01.18,0.508
2017-02-16 04:01:00,3094E-3,5C000000,-0724,0837,12128,026.6,045.4,0.437,737.7,01.18,0.508
2017-02-16 04:02:00,3061E-3,5C000000,-0724,0837,12018,026.6,045.4,0.437,737.6,01.18,0.508
2017-02-16 04:03:00,3083E-3,5C000000,-0724,0837,12020,026.6,045.4,0.437,737.6,01.18,0.508
2017-02-16 04:04:00,3278E-3,5C000000,-0724,0838,12219,026.6,045.4,0.437,737.7,01.18,0.508
2017-02-16 04:05:00,3253E-3,5C000000,-0724,0837,12017,026.6,045.4,0.437,737.7,01.18,0.508
2017-02-16 04:06:00,3125E-3,5C000000,-0724,0837,12042,026.6,045.4,0.437,737.7,01.18,0.508
2017-02-16 04:07:00,2961E-3,5C000000,-0724,0837,12059,026.6,045.4,0.437,737.7,01.18,0.508
2017-02-16 04:08:00,3147E-3,5C000000,-0724,0837,12009,026.6,045.4,0.437,737.7,01.18,0.508
2017-02-16 04:09:00,3192E-3,5C000000,-0724,0837,12040,026.6,045.4,0.437,737.7,01.18,0.508
2017-02-16 04:10:00,3255E-3,5C000000,-0724,0837,12016,026.6,045.4,0.437,737.7,01.18,0.508
2017-02-16 04:11:00,2937E-3,5C000000,-0724,0837,12189,026.7,045.4,0.437,737.8,01.18,0.508
2017-02-16 04:12:00,3336E-3,5C000000,-0724,0837,12055,026.7,045.4,0.437,737.7,01.18,0.508
2017-02-16 04:13:00,3057E-3,5C000000,-0724,0837,12176,026.7,045.4,0.437,737.7,01.18,0.508
2017-02-16 04:14:00,3144E-3,5C000000,-0724,0837,11900,026.7,045.4,0.436,737.7,01.18,0.508
2017-02-16 04:15:00,3177E-3,5C000000,-0724,0837,12096,026.6,045.4,0.436,737.7,01.18,0.508
2017-02-16 04:16:00,3114E-3,5C000000,-0724,0837,12112,026.7,045.4,0.436,737.7,01.18,0.508
2017-02-16 04:17:00,3030E-3,5C000000,-0724,0837,12101,026.7,045.4,0.436,737.8,01.18,0.508
2017-02-16 04:18:00,3176E-3,5C000000,-0724,0837,12139,026.7,045.4,0.437,737.7,01.18,0.508
2017-02-16 04:19:00,3248E-3,5C000000,-0724,0837,12005,026.7,045.4,0.437,737.8,01.18,0.508
2017-02-16 04:20:00,3133E-3,5C000000,-0724,0836,12030,026.7,045.4,0.437,737.8,01.18,0.508